Brookings, OR

2:34 AM PDT on August 29, 2016 (GMT -0700)
Brookings State

Weather History for KBOK - March, 2014

Change the Weather History Date:

Sunday, March 30, 2014

  Actual Average Record
Temperature  
Mean Temperature 46 °F -  
Max Temperature 51 °F 59 °F 76 °F (1987)
Min Temperature 42 °F 42 °F 32 °F (1938)
Degree Days  
Heating Degree Days 18    
Moisture  
Dew Point 43 °F    
Average Humidity 88    
Maximum Humidity 100    
Minimum Humidity 63    
Precipitation  
Precipitation 0.09 in - - ()
Sea Level Pressure  
Sea Level Pressure 30.05 in    
Wind  
Wind Speed 4 mph (SE)    
Max Wind Speed 12 mph    
Max Gust Speed -    
Visibility 7 miles    
Events Rain    
Averages and records for this station are not official NWS values.
T = Trace of Precipitation, MM = Missing Value Source: NWS Daily Summary

Daily Weather History Graph

Daily Weather History Graph

Search for Another Location

Airport or City:

Trip Planner

Search our weather history database for the weather conditions in past years. The results will help you decide how hot, cold, wet, or windy it might be!

Date:

Astronomy

Mar. 30, 2014 Rise Set
Actual Time 7:03 AM PDT 7:40 PM PDT
Civil Twilight 6:34 AM PDT 8:08 PM PDT
Nautical Twilight 6:01 AM PDT 8:42 PM PDT
Astronomical Twilight 5:27 AM PDT 9:16 PM PDT
Moon 6:52 AM PDT (3/30) 8:00 PM PDT (3/30)
Length of Visible Light 13h 34m
Length of Day
12h 37m
New Moon, 0% of the Moon is Illuminated
Mar 30
New Moon
Apr 7
First Quarter
Apr 15
Full
Apr 22
Last Quarter
Apr 28
New

Hourly Weather History & Observations

Time (PDT) Temp. Windchill Dew Point Humidity Pressure Visibility Wind Dir Wind Speed Gust Speed Precip Events Conditions
12:30 AM 46.4 °F 44.3 °F 46.4 °F 100% 30.05 in 2.5 mi NW 4.6 mph - 0.01 in Rain Heavy Rain
12:44 AM 46.4 °F - 46.4 °F 100% 30.05 in 6.0 mi Calm Calm - 0.01 in Rain Light Rain
12:56 AM 45.9 °F - 45.0 °F 97% 30.06 in 7.0 mi Calm Calm - 0.01 in   Mostly Cloudy
1:56 AM 43.9 °F - 43.9 °F 100% 30.06 in 4.0 mi Calm Calm - 0.00 in Rain Light Rain
2:40 AM 44.6 °F - 44.6 °F 100% 30.05 in 6.0 mi Calm Calm - 0.00 in   Mostly Cloudy
2:56 AM 45.0 °F - 45.0 °F 100% 30.07 in 2.0 mi Calm Calm - 0.01 in Rain Light Rain
3:08 AM 44.6 °F - 44.6 °F 100% 30.06 in 4.0 mi Calm Calm - 0.01 in Rain Light Rain
3:23 AM 44.6 °F - 44.6 °F 100% 30.06 in 4.0 mi Calm Calm - 0.01 in   Scattered Clouds
3:40 AM 42.8 °F - 42.8 °F 100% 30.06 in 2.0 mi Calm Calm - 0.01 in   Partly Cloudy
3:49 AM 42.8 °F - 42.8 °F 100% 30.05 in 3.0 mi Calm Calm - 0.01 in   Clear
3:56 AM 43.0 °F - 43.0 °F 100% 30.06 in 2.0 mi Calm Calm - 0.01 in   Clear
4:13 AM 42.8 °F - 42.8 °F 100% 30.05 in 5.0 mi Calm Calm - N/A   Partly Cloudy
4:24 AM 44.6 °F 41.4 °F 44.6 °F 100% 30.06 in 4.0 mi Variable 5.8 mph - 0.00 in Rain Light Rain
4:36 AM 42.8 °F 39.3 °F 42.8 °F 100% 30.06 in 2.5 mi North 5.8 mph - 0.03 in Rain Rain
4:56 AM 43.0 °F 41.3 °F 43.0 °F 100% 30.06 in 8.0 mi NE 3.5 mph - 0.05 in   Mostly Cloudy
5:41 AM 42.8 °F - 42.8 °F 100% 30.05 in 6.0 mi Calm Calm - 0.00 in Rain Light Rain
5:56 AM 43.0 °F - 43.0 °F 100% 30.07 in 8.0 mi Calm Calm - 0.00 in   Overcast
6:26 AM 42.8 °F 40.1 °F 42.8 °F 100% 30.06 in 9.0 mi Variable 4.6 mph - 0.00 in   Overcast
6:56 AM 43.0 °F 41.3 °F 41.9 °F 96% 30.07 in 10.0 mi Variable 3.5 mph - 0.00 in   Mostly Cloudy
7:56 AM 43.0 °F 39.5 °F 41.9 °F 96% 30.09 in 8.0 mi East 5.8 mph - N/A   Scattered Clouds
8:56 AM 45.9 °F 43.6 °F 43.0 °F 90% 30.08 in 9.0 mi Variable 4.6 mph - N/A   Mostly Cloudy
9:56 AM 47.8 °F - 43.0 °F 83% 30.09 in 9.0 mi East 4.6 mph - N/A   Partly Cloudy
10:56 AM 50.0 °F - 41.0 °F 71% 30.10 in 8.0 mi Variable 6.9 mph - N/A   Partly Cloudy
11:56 AM 50.9 °F - 38.8 °F 63% 30.09 in 8.0 mi SSW 6.9 mph - N/A   Clear
12:56 PM 50.0 °F - 43.9 °F 79% 30.10 in 7.0 mi South 8.1 mph - N/A   Scattered Clouds
1:56 PM 48.9 °F - 43.9 °F 83% 30.09 in 8.0 mi SSE 8.1 mph - 0.01 in   Partly Cloudy
2:56 PM 50.0 °F - 41.9 °F 74% 30.08 in 7.0 mi SSE 11.5 mph - N/A   Mostly Cloudy
3:56 PM 50.9 °F - 41.9 °F 71% 30.07 in 8.0 mi South 11.5 mph - N/A   Mostly Cloudy
4:44 PM 51.8 °F - 44.6 °F 76% 30.05 in 7.0 mi SSE 11.5 mph - N/A   Mostly Cloudy
4:56 PM 50.0 °F - 43.9 °F 79% 30.05 in 7.0 mi South 11.5 mph - N/A   Overcast
5:33 PM 51.8 °F - 44.6 °F 76% 30.04 in 7.0 mi South 11.5 mph - 0.00 in   Overcast
5:56 PM 50.0 °F - 43.0 °F 77% 30.04 in 8.0 mi South 10.4 mph - 0.00 in   Mostly Cloudy
6:56 PM 48.9 °F - 43.0 °F 80% 30.04 in 7.0 mi South 11.5 mph - N/A   Mostly Cloudy
7:56 PM 47.8 °F - 43.0 °F 83% 30.03 in 8.0 mi SE 9.2 mph - N/A   Overcast
8:56 PM 46.9 °F - 41.9 °F 83% 30.02 in 8.0 mi ESE 10.4 mph - N/A   Overcast
9:14 PM 46.4 °F 41.9 °F 42.8 °F 87% 30.01 in 8.0 mi ESE 9.2 mph - N/A   Scattered Clouds
9:49 PM 46.4 °F 42.4 °F 41.0 °F 81% 30.00 in 8.0 mi SE 8.1 mph - N/A   Mostly Cloudy
9:56 PM 46.9 °F - 41.0 °F 80% 30.01 in 8.0 mi SE 8.1 mph - N/A   Mostly Cloudy
10:38 PM 46.4 °F 42.4 °F 39.2 °F 76% 29.98 in 9.0 mi SE 8.1 mph - N/A   Scattered Clouds
10:56 PM 46.9 °F - 38.8 °F 73% 29.98 in 9.0 mi SE 11.5 mph - N/A   Mostly Cloudy
11:39 PM 46.4 °F 43.5 °F 39.2 °F 76% 29.95 in 9.0 mi Variable 5.8 mph - N/A   Mostly Cloudy
11:56 PM 45.9 °F 43.6 °F 38.8 °F 76% 29.95 in 9.0 mi Variable 4.6 mph - N/A   Partly Cloudy